Location: Bamazo
(6.7448°N, 10.8189°W)
Time: 00:59:32
(UTC+00:00)

SL-24 R/B - Pass Details

Date: 18 September 2020
Orbit: 625 x 1075 km, 98.0° (Epoch: 21 October)

Event Time Altitude Azimuth Distance (km) Brightness Sun altitude
Rises 19:13:30 0° 163° (SSE) 3,002 7.4 -8.8°
Reaches altitude 10° 19:15:46 10° 160° (SSE) 2,051 6.5 -9.4°
Maximum altitude 19:20:08 65° 79° (ENE) 689 4.0 -10.5°
Drops below altitude 10° 19:24:22 10° 356° (N) 1,991 6.7 -11.5°
Sets 19:26:33 0° 354° (N) 2,906 7.6 -12.1°
